Radiation Dose at Monitoring Post of Fukushima Daini Nuclear Power Station
Date,Time,MP-1(microSv/h),MP-2(microSv/h),MP-3(microSv/h),MP-4(microSv/h),MP-5(microSv/h),MP-6(microSv/h),MP-7(microSv/h),Wind Direction,Wind Velocity(m/s),Rain
2021/07/23,00:00,0.167,0.156,0.248,0.241,0.235,0.132,0.082,south,2.0,No
2021/07/23,00:10,0.170,0.155,0.249,0.243,0.238,0.131,0.082,south-southwest,1.7,No
2021/07/23,00:20,0.168,0.154,0.251,0.240,0.238,0.130,0.083,south-southwest,1.4,No
2021/07/23,00:30,0.167,0.156,0.249,0.239,0.237,0.131,0.082,south,1.7,No
2021/07/23,00:40,0.167,0.156,0.249,0.243,0.236,0.132,0.082,south-southwest,1.5,No
2021/07/23,00:50,0.169,0.155,0.251,0.240,0.238,0.130,0.082,south,1.9,No
2021/07/23,01:00,0.166,0.155,0.251,0.240,0.236,0.130,0.083,south,1.9,No
2021/07/23,01:10,0.166,0.156,0.247,0.241,0.234,0.131,0.082,south,1.9,No
2021/07/23,01:20,0.170,0.155,0.251,0.242,0.238,0.131,0.082,southwest,0.9,No
2021/07/23,01:30,0.167,0.155,0.250,0.239,0.238,0.131,0.082,southwest,0.8,No
2021/07/23,01:40,0.167,0.157,0.248,0.242,0.236,0.132,0.083,south-southeast,1.3,No
2021/07/23,01:50,0.169,0.156,0.250,0.242,0.236,0.132,0.082,-,CALM,No
2021/07/23,02:00,0.170,0.156,0.250,0.241,0.239,0.131,0.083,-,CALM,No
2021/07/23,02:10,0.168,0.157,0.249,0.240,0.237,0.131,0.084,south-southwest,0.7,No
2021/07/23,02:20,0.168,0.156,0.251,0.243,0.235,0.132,0.083,south,0.9,No
2021/07/23,02:30,0.170,0.156,0.252,0.242,0.239,0.131,0.084,north,1.2,No
2021/07/23,02:40,0.171,0.157,0.249,0.241,0.238,0.131,0.084,north-northeast,1.8,No
2021/07/23,02:50,0.168,0.156,0.251,0.244,0.236,0.132,0.084,north,1.4,No
2021/07/23,03:00,0.171,0.156,0.250,0.242,0.239,0.132,0.085,north,1.5,No
2021/07/23,03:10,0.170,0.158,0.250,0.239,0.239,0.132,0.084,-,CALM,No
2021/07/23,03:20,0.169,0.157,0.250,0.244,0.237,0.133,0.084,-,CALM,No
2021/07/23,03:30,0.169,0.155,0.252,0.242,0.238,0.131,0.084,-,CALM,No
2021/07/23,03:40,0.171,0.157,0.250,0.241,0.239,0.132,0.084,-,CALM,No
2021/07/23,03:50,0.168,0.157,0.250,0.244,0.237,0.132,0.083,-,CALM,No
2021/07/23,04:00,0.169,0.156,0.253,0.242,0.239,0.132,0.084,northwest,0.7,No
2021/07/23,04:10,0.170,0.157,0.249,0.242,0.239,0.132,0.084,-,CALM,No
2021/07/23,04:20,0.170,0.155,0.251,0.243,0.238,0.132,0.083,-,CALM,No
2021/07/23,04:30,0.168,0.156,0.250,0.242,0.235,0.132,0.082,-,CALM,No
2021/07/23,04:40,0.169,0.157,0.249,0.240,0.240,0.131,0.083,-,CALM,No
2021/07/23,04:50,0.169,0.156,0.252,0.244,0.237,0.132,0.083,-,CALM,No
2021/07/23,05:00,0.168,0.156,0.252,0.242,0.235,0.132,0.083,-,CALM,No
2021/07/23,05:10,0.169,0.157,0.249,0.240,0.240,0.132,0.084,north,1.3,Yes
2021/07/23,05:20,0.170,0.157,0.252,0.243,0.238,0.132,0.084,north-northwest,0.9,No
2021/07/23,05:30,0.168,0.157,0.251,0.242,0.235,0.133,0.083,north-northwest,1.6,No
2021/07/23,05:40,0.168,0.157,0.249,0.240,0.238,0.132,0.083,north,2.0,No
2021/07/23,05:50,0.169,0.157,0.252,0.245,0.239,0.132,0.085,-,CALM,No
2021/07/23,06:00,0.169,0.156,0.251,0.243,0.237,0.132,0.084,-,CALM,Yes
2021/07/23,06:10,0.168,0.158,0.250,0.240,0.237,0.131,0.083,north,2.2,No
2021/07/23,06:20,0.170,0.158,0.249,0.241,0.241,0.132,0.084,north,2.5,Yes
2021/07/23,06:30,0.170,0.156,0.248,0.241,0.237,0.135,0.086,north-northwest,2.8,Yes
2021/07/23,06:40,0.168,0.156,0.241,0.235,0.235,0.136,0.088,-,CALM,Yes
2021/07/23,06:50,0.172,0.161,0.238,0.236,0.241,0.140,0.095,northeast,1.8,Yes
2021/07/23,07:00,0.176,0.163,0.250,0.248,0.246,0.143,0.100,northeast,2.6,Yes
2021/07/23,07:10,0.175,0.164,0.250,0.247,0.245,0.141,0.100,-,CALM,Yes
2021/07/23,07:20,0.175,0.163,0.251,0.247,0.247,0.138,0.099,east,1.4,Yes
2021/07/23,07:30,0.174,0.160,0.251,0.245,0.244,0.138,0.096,south-southeast,1.4,No
2021/07/23,07:40,0.171,0.157,0.248,0.241,0.239,0.136,0.093,south-southeast,1.6,No
2021/07/23,07:50,0.167,0.158,0.245,0.238,0.238,0.133,0.092,south-southeast,1.6,No
2021/07/23,08:00,0.169,0.154,0.245,0.239,0.239,0.132,0.090,south,1.2,No
2021/07/23,08:10,0.168,0.153,0.243,0.238,0.237,0.132,0.088,west-southwest,1.5,No
2021/07/23,08:20,0.166,0.154,0.240,0.234,0.234,0.130,0.087,south-southwest,1.2,No
2021/07/23,08:30,0.163,0.153,0.238,0.232,0.232,0.128,0.087,south-southwest,2.7,No
2021/07/23,08:40,0.165,0.153,0.240,0.235,0.235,0.126,0.084,south-southwest,3.3,No
2021/07/23,08:50,0.163,0.150,0.240,0.233,0.233,0.127,0.083,southwest,2.1,No
2021/07/23,09:00,0.163,0.149,0.237,0.231,0.230,0.126,0.082,south-southwest,1.8,No
2021/07/23,09:10,0.162,0.149,0.237,0.229,0.230,0.125,0.081,south,1.7,No
2021/07/23,09:20,0.161,0.149,0.236,0.228,0.230,0.124,0.081,southeast,2.2,No
2021/07/23,09:30,0.161,0.149,0.235,0.227,0.229,0.125,0.080,southeast,3.0,No
2021/07/23,09:40,0.160,0.149,0.234,0.228,0.228,0.124,0.080,south-southeast,3.6,No
2021/07/23,09:50,0.159,0.147,0.235,0.228,0.228,0.125,0.080,southeast,2.3,No
2021/07/23,10:00,0.158,0.147,0.234,0.227,0.229,0.125,0.079,southeast,3.4,No
2021/07/23,10:10,0.159,0.147,0.234,0.227,0.228,0.125,0.079,southeast,2.6,No
2021/07/23,10:20,0.162,0.147,0.234,0.227,0.229,0.125,0.079,south-southeast,3.6,No
2021/07/23,10:30,0.162,0.147,0.233,0.226,0.227,0.125,0.078,south-southeast,3.0,No
2021/07/23,10:40,0.161,0.147,0.234,0.226,0.227,0.125,0.079,south-southeast,3.4,No
2021/07/23,10:50,0.160,0.147,0.233,0.226,0.228,0.124,0.079,south-southeast,2.5,No
2021/07/23,11:00,0.160,0.147,0.234,0.227,0.228,0.124,0.079,south-southeast,2.9,No
2021/07/23,11:10,0.160,0.147,0.235,0.227,0.228,0.124,0.078,southeast,3.3,No
2021/07/23,11:20,0.159,0.148,0.236,0.228,0.229,0.124,0.078,south-southeast,3.7,No
2021/07/23,11:30,0.158,0.148,0.235,0.228,0.229,0.123,0.079,southeast,3.1,No
2021/07/23,11:40,0.159,0.147,0.234,0.228,0.229,0.125,0.079,south-southeast,3.4,No
2021/07/23,11:50,0.159,0.147,0.235,0.229,0.230,0.125,0.079,south-southeast,3.2,No
2021/07/23,12:00,0.160,0.148,0.235,0.227,0.229,0.124,0.078,south-southeast,2.5,No
2021/07/23,12:10,0.160,0.148,0.234,0.228,0.229,0.125,0.079,southeast,2.0,No
2021/07/23,12:20,0.161,0.148,0.237,0.230,0.230,0.126,0.079,south-southeast,3.3,No
2021/07/23,12:30,0.162,0.148,0.236,0.229,0.230,0.126,0.080,south-southeast,3.9,No
2021/07/23,12:40,0.161,0.149,0.237,0.228,0.230,0.126,0.079,south-southeast,4.1,No
2021/07/23,12:50,0.161,0.149,0.236,0.228,0.231,0.125,0.079,south-southeast,4.6,No
2021/07/23,13:00,0.161,0.148,0.237,0.230,0.232,0.125,0.079,south-southeast,4.4,No
2021/07/23,13:10,0.161,0.149,0.237,0.229,0.230,0.126,0.079,south-southeast,4.4,No
2021/07/23,13:20,0.161,0.149,0.238,0.229,0.230,0.124,0.080,south-southeast,5.0,No
2021/07/23,13:30,0.161,0.150,0.237,0.229,0.229,0.126,0.079,south-southeast,4.8,No
2021/07/23,13:40,0.161,0.149,0.237,0.230,0.230,0.125,0.079,south-southeast,5.2,No
2021/07/23,13:50,0.161,0.149,0.237,0.231,0.230,0.124,0.079,south-southeast,6.1,No
2021/07/23,14:00,0.161,0.148,0.238,0.229,0.231,0.125,0.079,southeast,6.0,No
2021/07/23,14:10,0.162,0.150,0.236,0.231,0.231,0.125,0.080,south-southeast,6.1,No
2021/07/23,14:20,0.162,0.150,0.237,0.231,0.231,0.126,0.079,south-southeast,2.5,No
2021/07/23,14:30,0.162,0.149,0.236,0.230,0.230,0.126,0.080,south-southeast,4.8,No
2021/07/23,14:40,0.162,0.150,0.236,0.231,0.231,0.124,0.078,southeast,5.5,No
2021/07/23,14:50,0.162,0.150,0.237,0.230,0.231,0.125,0.079,south-southeast,7.6,No
2021/07/23,15:00,0.162,0.149,0.235,0.230,0.229,0.125,0.079,southeast,7.7,No
2021/07/23,15:10,0.161,0.148,0.236,0.229,0.230,0.126,0.080,south-southeast,6.9,No
2021/07/23,15:20,0.160,0.148,0.236,0.229,0.231,0.125,0.079,south-southeast,7.1,No
2021/07/23,15:30,0.160,0.149,0.238,0.230,0.231,0.125,0.080,south-southeast,6.4,No
2021/07/23,15:40,0.161,0.149,0.237,0.229,0.231,0.125,0.079,south-southeast,4.9,No
2021/07/23,15:50,0.161,0.149,0.236,0.230,0.230,0.125,0.078,southeast,4.1,No
2021/07/23,16:00,0.162,0.149,0.236,0.229,0.230,0.125,0.079,south-southeast,5.2,No
2021/07/23,16:10,0.161,0.148,0.236,0.230,0.230,0.126,0.079,south-southeast,4.5,No
2021/07/23,16:20,0.161,0.148,0.236,0.228,0.229,0.126,0.078,southeast,3.6,No
2021/07/23,16:30,0.161,0.149,0.235,0.229,0.231,0.125,0.078,southeast,3.2,No
2021/07/23,16:40,0.163,0.148,0.235,0.229,0.231,0.126,0.078,south-southeast,5.3,No
2021/07/23,16:50,0.161,0.148,0.236,0.228,0.231,0.125,0.078,south-southeast,4.2,No
2021/07/23,17:00,0.161,0.148,0.239,0.231,0.229,0.126,0.079,south-southeast,4.7,No
2021/07/23,17:10,0.162,0.149,0.240,0.233,0.231,0.126,0.079,south,5.1,No
2021/07/23,17:20,0.161,0.149,0.238,0.231,0.230,0.125,0.079,south-southeast,4.6,No
2021/07/23,17:30,0.161,0.149,0.237,0.229,0.229,0.125,0.079,south-southeast,4.0,No
2021/07/23,17:40,0.159,0.149,0.235,0.229,0.229,0.127,0.079,east-southeast,1.7,No
2021/07/23,17:50,0.161,0.147,0.238,0.230,0.229,0.127,0.079,south-southeast,3.1,No
2021/07/23,18:00,0.164,0.150,0.240,0.232,0.229,0.126,0.079,south-southeast,4.2,No
2021/07/23,18:10,0.163,0.149,0.238,0.232,0.228,0.125,0.079,south-southeast,5.2,No
2021/07/23,18:20,0.162,0.148,0.236,0.230,0.230,0.125,0.078,south,4.7,No
2021/07/23,18:30,0.161,0.148,0.235,0.230,0.232,0.126,0.080,south-southeast,5.8,No
2021/07/23,18:40,0.161,0.149,0.240,0.232,0.232,0.126,0.080,south-southeast,5.0,No
2021/07/23,18:50,0.164,0.150,0.239,0.232,0.231,0.126,0.079,south,5.0,No
2021/07/23,19:00,0.163,0.149,0.237,0.229,0.230,0.126,0.078,south,5.1,No
2021/07/23,19:10,0.162,0.149,0.237,0.230,0.233,0.126,0.080,south,4.6,No
2021/07/23,19:20,0.160,0.151,0.239,0.231,0.232,0.127,0.080,south,5.1,No
2021/07/23,19:30,0.163,0.149,0.237,0.231,0.230,0.127,0.079,south,4.7,No
2021/07/23,19:40,0.163,0.149,0.236,0.229,0.230,0.125,0.078,south,4.3,No
2021/07/23,19:50,0.162,0.150,0.240,0.231,0.232,0.126,0.080,south,4.6,No
2021/07/23,20:00,0.160,0.151,0.238,0.233,0.231,0.126,0.079,south,3.8,No
2021/07/23,20:10,0.162,0.149,0.238,0.231,0.231,0.125,0.079,south,4.5,No
2021/07/23,20:20,0.162,0.148,0.236,0.229,0.230,0.125,0.079,south,4.1,No
2021/07/23,20:30,0.163,0.150,0.239,0.230,0.232,0.126,0.080,south,4.9,No
2021/07/23,20:40,0.161,0.150,0.238,0.233,0.232,0.127,0.079,south,5.3,No
2021/07/23,20:50,0.162,0.149,0.237,0.230,0.231,0.126,0.079,south,6.0,No
2021/07/23,21:00,0.163,0.150,0.237,0.229,0.229,0.125,0.079,south,6.8,No
2021/07/23,21:10,0.162,0.150,0.240,0.230,0.233,0.126,0.079,south,5.3,No
2021/07/23,21:20,0.161,0.150,0.237,0.234,0.232,0.126,0.080,south,4.9,No
2021/07/23,21:30,0.163,0.149,0.237,0.231,0.231,0.126,0.079,south-southwest,4.1,No
2021/07/23,21:40,0.163,0.150,0.239,0.228,0.231,0.126,0.079,south,4.8,No
2021/07/23,21:50,0.162,0.150,0.238,0.231,0.234,0.126,0.080,south-southwest,4.9,No
2021/07/23,22:00,0.162,0.149,0.236,0.232,0.232,0.127,0.079,south,4.7,No
2021/07/23,22:10,0.163,0.151,0.238,0.231,0.229,0.125,0.079,south-southwest,3.7,No
2021/07/23,22:20,0.162,0.151,0.240,0.231,0.231,0.127,0.080,south-southwest,3.3,No
2021/07/23,22:30,0.162,0.149,0.236,0.232,0.233,0.127,0.080,southwest,2.6,No
2021/07/23,22:40,0.163,0.151,0.239,0.232,0.231,0.127,0.080,southwest,2.3,No
2021/07/23,22:50,0.163,0.151,0.239,0.229,0.230,0.127,0.080,southwest,2.3,No
2021/07/23,23:00,0.163,0.150,0.237,0.233,0.235,0.127,0.081,south-southwest,2.8,No
2021/07/23,23:10,0.163,0.150,0.239,0.232,0.233,0.127,0.080,south-southwest,2.9,No
2021/07/23,23:20,0.164,0.151,0.239,0.230,0.229,0.126,0.081,southwest,2.2,No
2021/07/23,23:30,0.162,0.149,0.237,0.233,0.231,0.126,0.080,south-southwest,1.9,No
2021/07/23,23:40,0.163,0.151,0.240,0.232,0.233,0.127,0.080,south-southwest,2.0,No
2021/07/23,23:50,0.163,0.150,0.239,0.231,0.231,0.125,0.080,south-southwest,1.8,No
